Regional Weather Roundup
Issued by NWS

Home | Current Version | Previous Version | Graphics & Text | Print | Product List | Glossary On
Versions: 1 2 3 4 5 6 7 8 9 10 11 12 13 14 15 16 17 18 19 20 21 22 23 24 25 26 27 28 29 30 31 32 33 34 35 36 37 38 39 40 41 42 43 44 45 46 47 48 49 50
000
ASUS45 KSLC 271910
RWRUT

UTAH REGIONAL WEATHER ROUNDUP
NATIONAL WEATHER SERVICE SALT LAKE CITY UT
100 PM MDT FRI MAR 27 2015

UTZ001>011-023>025-272000-

NORTHERN UTAH

CITY           SKY/WX    TMP DP  RH WIND       PRES   REMARKS
BRIGHAM CITY   SUNNY     62  29  28 SW5       30.30F
HILL AFB       SUNNY     62  29  28 VRB7      30.30F
LOGAN          SUNNY     60  34  37 CALM      30.29F
OGDEN          SUNNY     64  30  27 SW3       30.29F
PROVO AIRPORT  SUNNY     55  32  41 VRB3      30.32F
SALT LAKE CITY SUNNY     62  29  28 CALM      30.28F
VERNAL         SUNNY     61  27  27 VRB5      30.28F
WENDOVER       SUNNY     57  28  33 E9        30.29F
HEBER CITY     SUNNY     59  30  33 CALM      30.31F
WEST JORDAN    SUNNY     63  34  34 CALM      30.30F

$$

UTZ012>022-026-027-272000-

SOUTHERN/CENTRAL UTAH

CITY           SKY/WX    TMP DP  RH WIND       PRES   REMARKS
BLANDING       SUNNY     62  24  23 S5        30.38F
BRYCE CANYON   SUNNY     61  23  23 MISG      30.39F
CEDAR CITY     SUNNY     65  26  23 VRB3      30.30F
DELTA          SUNNY     63  24  22 NE6       30.30F
HANKSVILLE     SUNNY     66  23  19 CALM      30.28F
MILFORD        SUNNY     66  25  21 CALM      30.29F
MOAB/CYNLANDS  SUNNY     67  20  16 VRB5      30.25F
PRICE          SUNNY     64  26  23 S5        30.29F
ST GEORGE      CLEAR     70  28  21 CALM      30.24F
KANAB          SUNNY     70  25  18 SE5       30.31F

$$

REGIONAL REPORTS     COLORADO/ARIZONA

CITY           SKY/WX    TMP DP  RH WIND       PRES   REMARKS
CRAIG, CO      SUNNY     61  31  32 W15G22    30.29F
GRAND JUNCTION SUNNY     64  22  20 VRB5      30.26F
RIFLE          SUNNY     60  27  28 VRB3      30.27F
MONTROSE       SUNNY     63  20  19 NE7       30.30F
CORTEZ         SUNNY     67  23  19 W12       30.29F
PAGE, AZ       SUNNY     66  22  18 VRB3      30.27F
GRAND CANYON   SUNNY     69  14  12 VRB5      30.36F
KINGMAN        SUNNY     78  21  12 CALM      30.22F
FLAGSTAFF      SUNNY     67   9  10 MISG      30.37F

$$

REGIONAL REPORTS    NEVADA/IDAHO/WYOMING

CITY           SKY/WX    TMP DP  RH WIND       PRES   REMARKS
LAS VEGAS, NV  SUNNY     78  26  14 VRB5      30.14F
ELY            SUNNY     68  23  18 VRB6      30.31F
ELKO           SUNNY     65  33  30 W5        30.27F
POCATELLO, ID  SUNNY     66  34  30 VRB3      30.25F
BURLEY         SUNNY     68  36  30 VRB3      30.21F
EVANSTON, WY   SUNNY     59  30  33 VRB6      30.34F
ROCK SPRINGS   SUNNY     60  28  29 W13G21    30.28F
KEMMERER       SUNNY     55  32  41 W14G21    30.34F

$$



USA.gov is the U.S. government's official web portal to all federal, state and local government web resources and services.